Total_Precipitation_Accumulation
0.28 0.13 0.09 0.09 0.07 0.07 0.08 0.11 0.19 0.38 0.60 0.73 0.98 1.05 0.90 0.74 0.66 0.64 0.62 0.58 0.54 0.48 0.40 0.31 0.24 0.20 0.17 0.16 0.13 0.11 0.09 0.09 0.09 0.09 0.09 0.10 0.11 0.12 0.11 0.11 0.09 0.09 0.08 0.07
0.19 0.15 0.13 0.13 0.12 0.13 0.17 0.22 0.33 0.53 0.83 1.01 1.01 0.93 0.85 0.75 0.67 0.69 0.78 0.80 0.75 0.63 0.51 0.38 0.31 0.28 0.24 0.21 0.17 0.13 0.13 0.14 0.14 0.14 0.15 0.16 0.16 0.15 0.15 0.13 0.11 0.08 0.05 0.04
0.18 0.13 0.16 0.29 0.26 0.26 0.30 0.32 0.40 0.54 0.67 0.73 0.79 0.82 0.84 0.82 0.82 0.88 0.93 0.89 0.80 0.67 0.56 0.50 0.46 0.41 0.36 0.31 0.26 0.23 0.22 0.21 0.20 0.19 0.19 0.18 0.16 0.14 0.12 0.10 0.08 0.07 0.05 0.04
0.15 0.16 0.34 0.43 0.28 0.27 0.26 0.25 0.29 0.35 0.41 0.50 0.61 0.73 0.83 0.90 0.98 1.08 1.12 1.07 0.94 0.78 0.67 0.59 0.52 0.46 0.39 0.33 0.28 0.26 0.26 0.25 0.23 0.20 0.18 0.15 0.12 0.10 0.08 0.07 0.07 0.06 0.05 0.05
0.19 0.28 0.38 0.35 0.22 0.23 0.30 0.31 0.26 0.26 0.30 0.37 0.45 0.57 0.83 0.96 1.01 1.05 1.07 1.00 0.89 0.76 0.67 0.61 0.53 0.45 0.38 0.33 0.30 0.28 0.26 0.21 0.16 0.12 0.10 0.08 0.07 0.06 0.06 0.06 0.06 0.05 0.04 0.05
0.24 0.40 0.50 0.44 0.19 0.14 0.25 0.42 0.34 0.26 0.25 0.33 0.45 0.60 0.66 0.71 0.76 0.77 0.74 0.69 0.65 0.62 0.60 0.55 0.46 0.38 0.34 0.31 0.26 0.22 0.15 0.11 0.07 0.05 0.05 0.05 0.05 0.06 0.06 0.06 0.06 0.05 0.05 0.06
0.34 0.46 0.52 0.23 0.11 0.17 0.43 0.58 0.51 0.41 0.40 0.44 0.54 0.56 0.46 0.42 0.48 0.52 0.54 0.58 0.56 0.53 0.51 0.45 0.34 0.27 0.24 0.20 0.16 0.12 0.08 0.05 0.03 0.02 0.02 0.03 0.05 0.07 0.08 0.08 0.08 0.07 0.08 0.09
0.40 0.52 0.60 0.22 0.16 0.32 0.40 0.36 0.44 0.44 0.46 0.47 0.45 0.37 0.32 0.32 0.36 0.42 0.48 0.53 0.52 0.48 0.41 0.31 0.23 0.19 0.18 0.14 0.08 0.06 0.06 0.05 0.03 0.02 0.02 0.02 0.07 0.10 0.10 0.10 0.10 0.10 0.09 0.08
0.46 0.51 0.36 0.17 0.17 0.20 0.23 0.28 0.29 0.30 0.33 0.40 0.44 0.40 0.34 0.36 0.41 0.46 0.49 0.50 0.45 0.37 0.29 0.19 0.14 0.13 0.13 0.10 0.06 0.06 0.07 0.07 0.05 0.04 0.03 0.03 0.07 0.10 0.11 0.11 0.08 0.07 0.07 0.07
0.39 0.39 0.28 0.18 0.15 0.14 0.17 0.23 0.24 0.27 0.30 0.39 0.55 0.58 0.51 0.46 0.47 0.48 0.44 0.36 0.27 0.20 0.15 0.11 0.08 0.06 0.06 0.05 0.04 0.06 0.08 0.06 0.05 0.07 0.07 0.07 0.09 0.07 0.08 0.08 0.06 0.06 0.08 0.08
0.62 0.55 0.41 0.26 0.18 0.19 0.19 0.24 0.30 0.38 0.40 0.43 0.47 0.50 0.51 0.49 0.42 0.34 0.25 0.18 0.14 0.11 0.09 0.05 0.04 0.02 0.02 0.02 0.03 0.06 0.07 0.05 0.05 0.06 0.07 0.12 0.12 0.06 0.04 0.05 0.02 0.03 0.06 0.08
0.93 0.70 0.58 0.44 0.35 0.37 0.37 0.36 0.36 0.35 0.35 0.35 0.32 0.30 0.32 0.32 0.27 0.19 0.13 0.10 0.09 0.07 0.04 0.02 0.01 0.01 0.00 0.00 0.01 0.04 0.07 0.06 0.04 0.04 0.05 0.07 0.12 0.13 0.04 0.01 0.00 0.01 0.03 0.05
0.73 0.58 0.53 0.52 0.48 0.48 0.42 0.32 0.27 0.24 0.21 0.23 0.21 0.18 0.16 0.13 0.11 0.09 0.07 0.06 0.06 0.03 0.01 0.00 0.00 0.00 0.00 0.00 0.00 0.02 0.04 0.05 0.03 0.02 0.03 0.05 0.08 0.15 0.17 0.10 0.03 0.02 0.02 0.03
0.49 0.47 0.49 0.39 0.29 0.23 0.15 0.12 0.13 0.16 0.15 0.13 0.11 0.11 0.08 0.05 0.04 0.04 0.04 0.03 0.02 0.01 0.00 0.00 0.00 0.00 0.00 0.00 0.01 0.01 0.02 0.02 0.02 0.02 0.02 0.03 0.05 0.07 0.11 0.16 0.16 0.13 0.07 0.04
0.28 0.24 0.19 0.11 0.08 0.07 0.07 0.07 0.09 0.12 0.12 0.10 0.07 0.06 0.04 0.04 0.04 0.02 0.01 0.01 0.01 0.01 0.00 0.00 0.00 0.00 0.00 0.00 0.01 0.01 0.01 0.02 0.02 0.01 0.01 0.01 0.02 0.04 0.06 0.10 0.13 0.14 0.13 0.08
0.10 0.07 0.06 0.05 0.05 0.05 0.07 0.07 0.07 0.08 0.07 0.07 0.06 0.04 0.03 0.02 0.01 0.01 0.00 0.00 0.01 0.01 0.00 0.00 0.00 0.00 0.00 0.00 0.01 0.02 0.01 0.00 0.00 0.01 0.01 0.01 0.01 0.03 0.05 0.09 0.10 0.11 0.11 0.09
0.05 0.04 0.03 0.04 0.04 0.05 0.05 0.05 0.04 0.04 0.05 0.05 0.04 0.02 0.01 0.01 0.01 0.01 0.00 0.00 0.00 0.00 0.00 0.00 0.00 0.00 0.00 0.00 0.01 0.01 0.01 0.01 0.00 0.00 0.00 0.00 0.01 0.01 0.03 0.06 0.08 0.10 0.09 0.08
0.02 0.02 0.02 0.02 0.02 0.02 0.02 0.02 0.02 0.02 0.02 0.01 0.01 0.00 0.00 0.00 0.01 0.00 0.00 0.00 0.00 0.00 0.00 0.00 0.00 0.00 0.00 0.00 0.00 0.00 0.01 0.01 0.00 0.00 0.00 0.00 0.00 0.01 0.01 0.03 0.05 0.08 0.09 0.09
0.01 0.01 0.01 0.01 0.01 0.01 0.01 0.01 0.01 0.00 0.00 0.00 0.00 0.00 0.00 0.00 0.00 0.00 0.00 0.00 0.00 0.00 0.00 0.00 0.00 0.00 0.00 0.00 0.00 0.00 0.00 0.01 0.01 0.00 0.00 0.00 0.01 0.01 0.01 0.02 0.03 0.05 0.07 0.10
0.01 0.02 0.01 0.01 0.00 0.00 0.00 0.00 0.00 0.00 0.00 0.00 0.00 0.00 0.00 0.00 0.00 0.00 0.00 0.00 0.00 0.00 0.00 0.00 0.00 0.00 0.00 0.00 0.00 0.00 0.00 0.00 0.00 0.00 0.00 0.00 0.01 0.01 0.01 0.01 0.01 0.03 0.05 0.07
0.02 0.02 0.02 0.00 0.00 0.00 0.00 0.00 0.01 0.01 0.00 0.00 0.00 0.00 0.00 0.00 0.00 0.00 0.00 0.00 0.00 0.00 0.00 0.00 0.00 0.00 0.00 0.00 0.00 0.00 0.00 0.00 0.00 0.00 0.00 0.00 0.00 0.00 0.00 0.01 0.01 0.02 0.03 0.05
0.03 0.04 0.02 0.01 0.01 0.01 0.01 0.01 0.00 0.00 0.00 0.00 0.00 0.00 0.00 0.00 0.00 0.00 0.00 0.00 0.00 0.00 0.00 0.00 0.00 0.00 0.00 0.00 0.00 0.00 0.00 0.00 0.00 0.00 0.00 0.00 0.00 0.00 0.00 0.01 0.01 0.01 0.02 0.03
0.06 0.04 0.03 0.02 0.02 0.01 0.01 0.01 0.00 0.00 0.00 0.00 0.00 0.00 0.00 0.00 0.00 0.00 0.00 0.00 0.00 0.00 0.00 0.00 0.00 0.00 0.00 0.00 0.00 0.00 0.00 0.00 0.00 0.00 0.00 0.00 0.00 0.00 0.00 0.00 0.01 0.01 0.02 0.02
0.10 0.08 0.05 0.03 0.02 0.02 0.02 0.01 0.00 0.00 0.00 0.00 0.00 0.00 0.00 0.00 0.00 0.00 0.00 0.00 0.00 0.00 0.00 0.00 0.00 0.00 0.00 0.00 0.00 0.00 0.00 0.00 0.00 0.00 0.00 0.00 0.00 0.00 0.00 0.00 0.00 0.01 0.01 0.01
0.14 0.10 0.06 0.05 0.05 0.04 0.02 0.01 0.00 0.00 0.00 0.00 0.00 0.00 0.00 0.00 0.00 0.00 0.00 0.00 0.00 0.00 0.00 0.00 0.00 0.00 0.00 0.00 0.00 0.00 0.00 0.00 0.00 0.00 0.00 0.00 0.00 0.00 0.00 0.00 0.00 0.00 0.00 0.00
0.20 0.17 0.13 0.09 0.05 0.02 0.01 0.00 0.00 0.00 0.00 0.00 0.00 0.00 0.00 0.00 0.00 0.00 0.00 0.00 0.00 0.00 0.00 0.00 0.00 0.00 0.00 0.00 0.00 0.00 0.00 0.00 0.00 0.00 0.00 0.00 0.00 0.00 0.00 0.00 0.00 0.00 0.00 0.00
0.25 0.21 0.16 0.10 0.04 0.01 0.00 0.00 0.00 0.00 0.00 0.00 0.00 0.00 0.00 0.00 0.00 0.00 0.00 0.00 0.00 0.00 0.00 0.00 0.00 0.00 0.00 0.00 0.00 0.00 0.00 0.00 0.00 0.00 0.00 0.00 0.00 0.00 0.00 0.00 0.00 0.00 0.00 0.00